{"data":{"norad_id":53968,"epoch":"2026-05-24T16:04:05.888640Z","epoch_age_seconds":103324,"freshness":"FRESH","line1":"1 53968U 22125E   26144.66951260  .00001913  00000+0  13829-3 0  9994","line2":"2 53968  53.2169 242.9502 0001217 101.6342 258.4787 15.08830596200795","mean_motion":15.08830596,"eccentricity":0.0001217,"inclination_deg":53.2169,"raan_deg":242.9502,"arg_perigee_deg":101.6342,"mean_anomaly_deg":258.4787,"bstar":0.00013829,"rev_number":20079,"period_min":95.438149505818,"perigee_km":538.93022383774,"apogee_km":540.6140429208,"semimajor_km":6917.9091333793,"source":"CELESTRAK","updated_at":"2026-05-25T13:38:17.617493Z"}}